| time (UTC) | temp F | wind direction | speed MPH | gust MPH | rain 1hr in | rain 24hr in | rain mn in | humidity % | barometer mb |
| 20260503040057 | 67 | 87 | 1.0 | 13.0 | 0.00 | 0.00 | 0.00 | 29 | 1015.1 |
| 20260503034558 | 67 | 193 | 6.0 | 12.0 | 0.00 | 0.00 | 0.00 | 29 | 1015.0 |
| 20260503033050 | 66 | 181 | 8.0 | 17.0 | 0.00 | 0.00 | 0.00 | 31 | 1014.9 |
| 20260503031549 | 65 | 146 | 9.0 | 15.0 | 0.00 | 0.00 | 0.00 | 32 | 1014.6 |
| 20260503030124 | 65 | 231 | 8.0 | 19.0 | 0.00 | 0.00 | 0.00 | 35 | 1014.4 |
| 20260503024554 | 65 | 166 | 12.0 | 23.0 | 0.00 | 0.00 | 0.00 | 33 | 1014.3 |
| 20260503023050 | 65 | 210 | 2.0 | 6.0 | 0.00 | 0.00 | 0.00 | 31 | 1014.8 |
| 20260503021602 | 65 | 180 | 2.0 | 6.0 | 0.00 | 0.00 | 0.00 | 30 | 1014.6 |
| 20260503020054 | 66 | 136 | 0.0 | 3.0 | 0.00 | 0.00 | 0.00 | 29 | 1014.4 |
| 20260503014605 | 66 | 121 | 1.0 | 7.0 | 0.00 | 0.00 | 0.00 | 29 | 1014.2 |
| 20260503013052 | 66 | 120 | 6.0 | 21.0 | 0.00 | 0.00 | 0.00 | 30 | 1014.5 |
| 20260503011558 | 66 | 160 | 14.0 | 21.0 | 0.00 | 0.00 | 0.00 | 33 | 1015.0 |
| 20260503010105 | 67 | 202 | 16.0 | 33.0 | 0.00 | 0.00 | 0.00 | 32 | 1014.9 |
| 20260503004549 | 70 | 172 | 13.0 | 21.0 | 0.00 | 0.00 | 0.00 | 25 | 1014.6 |
| 20260503003059 | 71 | 174 | 9.0 | 14.0 | 0.00 | 0.00 | 0.00 | 22 | 1014.3 |
| 20260503001552 | 71 | 180 | 12.0 | 26.0 | 0.00 | 0.00 | 0.00 | 21 | 1014.2 |
| 20260503000056 | 72 | 215 | 11.0 | 21.0 | 0.00 | 0.00 | 0.00 | 20 | 1013.9 |
| 20260502234551 | 72 | 182 | 10.0 | 15.0 | 0.00 | 0.00 | 0.00 | 20 | 1013.9 |
| 20260502233053 | 72 | 0 | 1.0 | 9.0 | 0.00 | 0.00 | 0.00 | 21 | 1014.0 |
| 20260502231550 | 72 | 268 | 6.0 | 9.0 | 0.00 | 0.00 | 0.00 | 21 | 1014.1 |
| 20260502230050 | 72 | 268 | 6.0 | 8.0 | 0.00 | 0.00 | 0.00 | 21 | 1014.3 |
| 20260502224549 | 72 | 0 | 0.0 | 4.0 | 0.00 | 0.00 | 0.00 | 21 | 1014.5 |
| 20260502223054 | 72 | 93 | 1.0 | 8.0 | 0.00 | 0.00 | 0.00 | 21 | 1014.7 |
| 20260502221549 | 72 | 0 | 5.0 | 10.0 | 0.00 | 0.00 | 0.00 | 21 | 1014.9 |
| 20260502220055 | 72 | 82 | 7.0 | 10.0 | 0.00 | 0.00 | 0.00 | 20 | 1014.9 |
| 20260502214556 | 73 | 113 | 1.0 | 11.0 | 0.00 | 0.00 | 0.00 | 20 | 1015.0 |
| 20260502213050 | 73 | 215 | 4.0 | 9.0 | 0.00 | 0.00 | 0.00 | 20 | 1015.0 |
| 20260502211551 | 72 | 204 | 3.0 | 11.0 | 0.00 | 0.00 | 0.00 | 20 | 1015.2 |
| 20260502210049 | 73 | 177 | 8.0 | 13.0 | 0.00 | 0.00 | 0.00 | 18 | 1015.2 |
| 20260502204602 | 72 | 298 | 4.0 | 7.0 | 0.00 | 0.00 | 0.00 | 20 | 1015.2 |
| 20260502203113 | 73 | 340 | 0.0 | 7.0 | 0.00 | 0.00 | 0.00 | 20 | 1015.1 |
| 20260502201551 | 74 | 0 | 0.0 | 7.0 | 0.00 | 0.00 | 0.00 | 19 | 1015.2 |
| 20260502200046 | 73 | 56 | 1.0 | 7.0 | 0.00 | 0.00 | 0.00 | 19 | 1015.4 |
| 20260502194556 | 74 | 0 | 0.0 | 6.0 | 0.00 | 0.00 | 0.00 | 18 | 1015.5 |
| 20260502193050 | 72 | 0 | 0.0 | 5.0 | 0.00 | 0.00 | 0.00 | 17 | 1015.7 |
| 20260502191555 | 71 | 0 | 0.0 | 2.0 | 0.00 | 0.00 | 0.00 | 17 | 1016.0 |
| 20260502190047 | 70 | 156 | 1.0 | 7.0 | 0.00 | 0.00 | 0.00 | 16 | 1016.1 |
| 20260502184551 | 69 | 127 | 3.0 | 6.0 | 0.00 | 0.00 | 0.00 | 16 | 1016.1 |
| 20260502183050 | 69 | 84 | 3.0 | 6.0 | 0.00 | 0.00 | 0.00 | 16 | 1016.3 |
| 20260502181605 | 70 | 0 | 1.0 | 4.0 | 0.00 | 0.00 | 0.00 | 17 | 1016.1 |
| 20260502163053 | 63 | 105 | 0.0 | 1.0 | 0.00 | 0.00 | 0.00 | 22 | 1016.6 |
| 20260502161557 | 60 | 0 | 0.0 | 2.0 | 0.00 | 0.00 | 0.00 | 26 | 1016.6 |
| 20260502151602 | 57 | 0 | 0.0 | 3.0 | 0.00 | 0.00 | 0.00 | 27 | 1016.3 |
| 20260502123053 | 43 | 0 | 2.0 | 3.0 | 0.00 | 0.00 | 0.00 | 43 | 1015.6 |
| 20260502121553 | 43 | 0 | 0.0 | 2.0 | 0.00 | 0.00 | 0.00 | 40 | 1015.7 |
| 20260502114556 | 44 | 0 | 0.0 | 0.0 | 0.00 | 0.00 | 0.00 | 41 | 1015.8 |
| 20260502113052 | 45 | 180 | 0.0 | 2.0 | 0.00 | 0.00 | 0.00 | 39 | 1015.8 |
| 20260502111551 | 45 | 0 | 0.0 | 0.0 | 0.00 | 0.00 | 0.00 | 40 | 1015.7 |
| 20260502110100 | 44 | 0 | 0.0 | 1.0 | 0.00 | 0.00 | 0.00 | 41 | 1015.6 |
| 20260502104552 | 45 | 0 | 0.0 | 0.0 | 0.00 | 0.00 | 0.00 | 39 | 1015.5 |
| 20260502103048 | 44 | 0 | 0.0 | 0.0 | 0.00 | 0.00 | 0.00 | 39 | 1015.5 |
| 20260502101551 | 44 | 0 | 0.0 | 0.0 | 0.00 | 0.00 | 0.00 | 39 | 1015.6 |
| 20260502080103 | 52 | 22 | 0.0 | 1.0 | 0.00 | 0.00 | 0.00 | 29 | 1016.3 |
| 20260502070055 | 54 | 234 | 0.0 | 2.0 | 0.00 | 0.00 | 0.00 | 26 | 1016.1 |
| 20260502064557 | 54 | 0 | 0.0 | 3.0 | 0.00 | 0.00 | 0.00 | 27 | 1016.2 |
| 20260502063054 | 55 | 166 | 3.0 | 4.0 | 0.00 | 0.00 | 0.00 | 27 | 1016.2 |
| 20260502061553 | 54 | 171 | 3.0 | 4.0 | 0.00 | 0.00 | 0.00 | 25 | 1016.1 |
| 20260502060048 | 53 | 0 | 0.0 | 5.0 | 0.00 | 0.00 | 0.00 | 26 | 1016.3 |
| 20260502054558 | 54 | 0 | 1.0 | 4.0 | 0.00 | 0.00 | 0.00 | 26 | 1016.3 |
| 20260502053050 | 54 | 0 | 0.0 | 0.0 | 0.00 | 0.00 | 0.00 | 26 | 1016.4 |
| 20260502051551 | 56 | 0 | 0.0 | 2.0 | 0.00 | 0.00 | 0.00 | 24 | 1016.4 |
| 20260502050051 | 56 | 0 | 0.0 | 4.0 | 0.00 | 0.00 | 0.00 | 25 | 1016.3 |
| 20260502044552 | 57 | 31 | 0.0 | 6.0 | 0.00 | 0.00 | 0.00 | 25 | 1016.3 |
| 20260502043056 | 58 | 197 | 2.0 | 3.0 | 0.00 | 0.00 | 0.00 | 24 | 1016.1 |
| 20260502041553 | 58 | 190 | 0.0 | 4.0 | 0.00 | 0.00 | 0.00 | 24 | 1016.2 |